Location: Unspecified
(0.0000°N, 0.0000°E)
Time: 02:48:14
(UTC+00:00)

deb Explorer IX - Pass Details

Date: 21 December 2018
Orbit: 538 x 1115 km, 38.8° (Epoch: 14 January)

Event Time Altitude Azimuth Distance (km) Brightness Sun altitude
Rises 11:57:12 0° 228° (SW) 3,879 ? 66.6°
Reaches altitude 10° 12:00:04 10° 227° (SW) 2,874 ? 66.6°
Maximum altitude 12:07:06 85° 139° (SE) 971 ? 66.5°
Drops below altitude 10° 12:13:10 10° 50° (NE) 2,495 ? 66.3°
Sets 12:15:30 0° 50° (NE) 3,342 ? 66.2°
